Joliet, IL

9:06 PM CDT on September 26, 2016 (GMT -0500)
Joliet Regional

Weather History for KJOT - September, 2013

Change the Weather History Date:

Thursday, September 5, 2013

  Actual Average (KLOT) Record (KLOT)
Temperature  
Mean Temperature 68 °F 69 °F  
Max Temperature 76 °F 79 °F 91 °F (1999)
Min Temperature 60 °F 59 °F 47 °F (1997)
Degree Days  
Heating Degree Days 0 1  
Month to date heating degree days 5  
Since 1 July heating degree days 13  
Cooling Degree Days 3 5  
Month to date cooling degree days 27  
Year to date cooling degree days 780  
Growing Degree Days 18 (Base 50)    
Moisture  
Dew Point 55 °F    
Average Humidity 67    
Maximum Humidity 95    
Minimum Humidity 44    
Precipitation  
Precipitation 0.00 in 0.13 in 0.26 in (2014)
Month to date precipitation 0.64  
Year to date precipitation 28.46  
Sea Level Pressure  
Sea Level Pressure 30.21 in    
Wind  
Wind Speed 4 mph (ENE)    
Max Wind Speed 13 mph    
Max Gust Speed -    
Visibility 10 miles    
Events      
T = Trace of Precipitation, MM = Missing Value Source: NWS Daily Summary

Daily Weather History Graph

Daily Weather History Graph

Search for Another Location

Airport or City:

Trip Planner

Search our weather history database for the weather conditions in past years. The results will help you decide how hot, cold, wet, or windy it might be!

Date:

Astronomy

Sep. 05, 2013 Rise Set
Actual Time 6:23 AM CDT 7:18 PM CDT
Civil Twilight 5:54 AM CDT 7:46 PM CDT
Nautical Twilight 5:21 AM CDT 8:20 PM CDT
Astronomical Twilight 4:46 AM CDT 8:55 PM CDT
Moon 6:35 AM CDT (9/5) 7:09 PM CDT (9/5)
Length of Visible Light 13h 51m
Length of Day
12h 55m
New Moon, 0% of the Moon is Illuminated
Sep 5
New Moon
Sep 12
First Quarter
Sep 19
Full
Sep 26
Last Quarter
Oct 4
New

Hourly Weather History & Observations

Time (CDT) Temp. Dew Point Humidity Pressure Visibility Wind Dir Wind Speed Gust Speed Precip Events Conditions
12:15 AM 61.3 °F 59.4 °F 93% 30.13 in 10.0 mi Calm Calm - N/A   Clear
12:35 AM 60.8 °F 59.2 °F 94% 30.14 in 10.0 mi Calm Calm - N/A   Clear
12:55 AM 60.6 °F 59.2 °F 95% 30.14 in 10.0 mi Calm Calm - N/A   Clear
1:15 AM 61.7 °F 59.9 °F 94% 30.14 in 10.0 mi Calm Calm - N/A   Clear
1:35 AM 62.4 °F 60.1 °F 92% 30.14 in 10.0 mi Calm Calm - N/A   Clear
1:55 AM 62.8 °F 60.3 °F 91% 30.14 in 10.0 mi Calm Calm - N/A   Clear
2:15 AM 63.5 °F 60.8 °F 91% 30.15 in 10.0 mi Calm Calm - N/A   Clear
2:35 AM 62.1 °F 60.1 °F 93% 30.15 in 10.0 mi Calm Calm - N/A   Clear
2:55 AM 62.2 °F 60.3 °F 93% 30.15 in 10.0 mi Calm Calm - N/A   Clear
3:15 AM 63.5 °F 60.4 °F 90% 30.16 in 10.0 mi Calm Calm - N/A   Clear
3:35 AM 63.5 °F 60.1 °F 89% 30.16 in 10.0 mi Calm Calm - N/A   Clear
3:55 AM 62.6 °F 60.3 °F 92% 30.16 in 10.0 mi Calm Calm - N/A   Clear
4:15 AM 62.4 °F 59.9 °F 91% 30.16 in 10.0 mi Calm Calm - N/A   Clear
4:35 AM 61.9 °F 60.4 °F 95% 30.17 in 10.0 mi Calm Calm - N/A   Clear
4:55 AM 62.1 °F 60.4 °F 94% 30.17 in 10.0 mi Calm Calm - N/A   Clear
5:15 AM 62.8 °F 60.4 °F 92% 30.17 in 10.0 mi Calm Calm - N/A   Clear
5:35 AM 63.9 °F 60.8 °F 90% 30.18 in 10.0 mi Calm Calm - N/A   Clear
5:55 AM 63.3 °F 60.8 °F 91% 30.18 in 10.0 mi Calm Calm - N/A   Clear
6:15 AM 64.6 °F 61.9 °F 91% 30.19 in 10.0 mi Calm Calm - N/A   Clear
6:35 AM 65.3 °F 62.6 °F 91% 30.19 in 10.0 mi Calm Calm - N/A   Clear
6:55 AM 66.6 °F 64.2 °F 92% 30.19 in 10.0 mi Calm Calm - N/A   Clear
7:15 AM 67.6 °F 65.1 °F 92% 30.20 in 7.0 mi NE 4.6 mph - N/A   Clear
7:35 AM 68.2 °F 65.3 °F 90% 30.21 in 7.0 mi NE 6.9 mph - N/A   Clear
7:55 AM 68.9 °F 65.1 °F 88% 30.21 in 10.0 mi ENE 6.9 mph - N/A   Clear
8:15 AM 69.3 °F 64.9 °F 86% 30.21 in 10.0 mi ENE 8.1 mph - N/A   Clear
8:35 AM 69.8 °F 65.1 °F 85% 30.22 in 10.0 mi NE 8.1 mph - N/A   Scattered Clouds
8:55 AM 70.7 °F 64.9 °F 82% 30.22 in 10.0 mi ENE 8.1 mph - N/A   Mostly Cloudy
9:15 AM 70.3 °F 64.2 °F 81% 30.23 in 10.0 mi ENE 11.5 mph - N/A   Mostly Cloudy
9:35 AM 70.3 °F 63.0 °F 77% 30.24 in 10.0 mi ENE 8.1 mph - N/A   Mostly Cloudy
9:55 AM 70.9 °F 62.2 °F 74% 30.24 in 10.0 mi ENE 12.7 mph - N/A   Mostly Cloudy
10:15 AM 70.7 °F 60.8 °F 71% 30.24 in 10.0 mi ENE 9.2 mph - N/A   Scattered Clouds
10:35 AM 70.7 °F 58.6 °F 66% 30.25 in 10.0 mi ENE 12.7 mph - N/A   Clear
10:55 AM 70.7 °F 56.5 °F 61% 30.25 in 10.0 mi East 9.2 mph - N/A   Clear
11:15 AM 72.3 °F 53.8 °F 52% 30.25 in 10.0 mi ENE 11.5 mph - N/A   Clear
11:35 AM 74.1 °F 52.5 °F 47% 30.25 in 10.0 mi ENE 12.7 mph - N/A   Clear
11:55 AM 73.0 °F 51.6 °F 47% 30.25 in 10.0 mi NE 9.2 mph - N/A   Clear
12:15 PM 73.8 °F 52.0 °F 46% 30.25 in 10.0 mi ENE 10.4 mph - N/A   Clear
12:35 PM 73.6 °F 52.2 °F 47% 30.26 in 10.0 mi ENE 10.4 mph - N/A   Clear
12:55 PM 72.0 °F 49.6 °F 45% 30.26 in 10.0 mi East 8.1 mph - N/A   Mostly Cloudy
1:15 PM 72.1 °F 52.0 °F 49% 30.25 in 10.0 mi NE 10.4 mph - N/A   Mostly Cloudy
1:35 PM 73.0 °F 52.7 °F 49% 30.25 in 10.0 mi ENE 8.1 mph - N/A   Scattered Clouds
1:55 PM 73.6 °F 51.8 °F 46% 30.24 in 10.0 mi ENE 5.8 mph - N/A   Scattered Clouds
2:15 PM 74.7 °F 52.3 °F 46% 30.24 in 10.0 mi ENE 9.2 mph - N/A   Clear
2:35 PM 74.8 °F 52.3 °F 45% 30.24 in 10.0 mi NE 10.4 mph - N/A   Scattered Clouds
2:55 PM 75.9 °F 53.2 °F 45% 30.23 in 10.0 mi East 5.8 mph - N/A   Scattered Clouds
3:15 PM 75.2 °F 52.9 °F 46% 30.23 in 10.0 mi ENE 9.2 mph - N/A   Scattered Clouds
3:35 PM 75.9 °F 53.8 °F 46% 30.22 in 10.0 mi East 9.2 mph - N/A   Clear
3:55 PM 76.1 °F 53.6 °F 45% 30.22 in 10.0 mi East 9.2 mph - N/A   Clear
4:15 PM 73.9 °F 53.1 °F 48% 30.22 in 10.0 mi East 8.1 mph - N/A   Clear
4:35 PM 75.0 °F 51.6 °F 44% 30.22 in 10.0 mi NE 10.4 mph - N/A   Scattered Clouds
4:55 PM 73.9 °F 50.9 °F 44% 30.22 in 10.0 mi ENE 9.2 mph - N/A   Scattered Clouds
5:15 PM 72.3 °F 50.7 °F 46% 30.22 in 10.0 mi ENE 8.1 mph - N/A   Scattered Clouds
5:35 PM 72.0 °F 50.2 °F 46% 30.22 in 10.0 mi ENE 5.8 mph - N/A   Scattered Clouds
5:55 PM 71.6 °F 50.0 °F 46% 30.22 in 10.0 mi ENE 5.8 mph - N/A   Scattered Clouds
6:15 PM 71.1 °F 49.8 °F 47% 30.22 in 10.0 mi ENE 9.2 mph - N/A   Clear
6:35 PM 70.0 °F 49.3 °F 48% 30.21 in 10.0 mi ENE 9.2 mph - N/A   Clear
6:55 PM 68.7 °F 48.2 °F 48% 30.21 in 10.0 mi ENE 6.9 mph - N/A   Clear
7:15 PM 68.2 °F 47.7 °F 48% 30.22 in 10.0 mi NE 6.9 mph - N/A   Clear
7:35 PM 67.1 °F 47.5 °F 49% 30.22 in 10.0 mi NE 6.9 mph - N/A   Clear
7:55 PM 66.6 °F 46.4 °F 48% 30.22 in 10.0 mi ENE 4.6 mph - N/A   Clear
8:15 PM 65.3 °F 46.8 °F 51% 30.23 in 10.0 mi ENE 5.8 mph - N/A   Clear
8:35 PM 65.1 °F 46.4 °F 51% 30.23 in 10.0 mi NE 6.9 mph - N/A   Clear
8:55 PM 64.6 °F 46.0 °F 51% 30.24 in 10.0 mi NE 3.5 mph - N/A   Clear
9:15 PM 64.2 °F 46.2 °F 52% 30.23 in 10.0 mi NE 4.6 mph - N/A   Clear
9:35 PM 64.4 °F 46.6 °F 52% 30.24 in 10.0 mi NE 4.6 mph - N/A   Clear
9:55 PM 63.1 °F 47.3 °F 56% 30.24 in 10.0 mi NE 4.6 mph - N/A   Clear
10:15 PM 62.6 °F 47.5 °F 58% 30.24 in 10.0 mi NNE 3.5 mph - N/A   Clear
10:35 PM 62.1 °F 47.8 °F 60% 30.24 in 10.0 mi Calm Calm - N/A   Clear
10:55 PM 61.7 °F 48.2 °F 61% 30.24 in 10.0 mi Calm Calm - N/A   Clear
11:15 PM 60.8 °F 48.7 °F 64% 30.24 in 10.0 mi Calm Calm - N/A   Clear
11:35 PM 60.8 °F 49.1 °F 65% 30.24 in 10.0 mi Calm Calm - N/A   Clear
11:55 PM 60.6 °F 50.0 °F 68% 30.24 in 10.0 mi Calm Calm - N/A   Scattered Clouds